Regional Weather Roundup
Issued by NWS

Home | Current Version | Previous Version | Text Only | Print | Product List | Glossary Off
Versions: 1 2 3 4 5 6 7 8 9 10 11 12 13 14 15 16 17 18 19 20 21 22 23 24 25 26 27 28 29 30 31 32 33 34 35 36 37 38 39 40 41 42 43 44 45 46 47 48 49 50

000
ASUS43 KLSX 240157
RWRMO

WEATHER SUMMARY FOR MISSOURI
NATIONAL WEATHER SERVICE SPRINGFIELD MO
900 PM CDT MON OCT 23 2017

NOTE: "FAIR" INDICATES FEW OR NO CLOUDS BELOW 12,000 FEET WITH NO
       SIGNIFICANT WEATHER AND/OR OBSTRUCTIONS TO VISIBILITY.
       CURRENT SKY AND/OR WEATHER CONDITIONS ARE NOT AVAILABLE FOR
       CHILLICOTHE AND FARMINGTON.

MOZ001>031-035>038-043-044-053-054-240300-
...NORTHERN AND WESTERN MISSOURI...

CITY           SKY/WX    TMP DP  RH WIND       PRES   REMARKS
KANSAS CTY INT CLEAR     55  33  43 NW18G28   30.06R
LEE`S SUMMIT   PTCLDY    57  32  38 NW16G30   30.05R
ST JOSEPH      LGT RAIN  55  33  43 NW20G25   30.07R
CHILLICOTHE      N/A     57  35  43 NW17G32   29.99R

$$
MOZ066>068-077>081-088>096-101>105-240300-
...SOUTHWEST MISSOURI...

CITY           SKY/WX    TMP DP  RH WIND       PRES   REMARKS
SPRINGFIELD    CLEAR     56  37  49 W9        30.03R
JOPLIN         CLEAR     56  38  50 W10       30.10R
BRANSON        PTCLDY    59  34  38 NW10G18   30.06R

$$
MOZ032>034-039>042-045>050-055>058-069>072-240300-
...CENTRAL MISSOURI...

CITY           SKY/WX    TMP DP  RH WIND       PRES   REMARKS
COLUMBIA       NOT AVBL
JEFFERSON CITY MOCLDY    60  36  40 NW14G21   29.93R
ROLLA          PTCLDY    55  41  59 W10       29.94R
SEDALIA        MOCLDY    59  37  44 NW15G26   29.99R
WARRENSBURG    PTCLDY    59  32  36 NW20G30   30.01R

$$
MOZ051-052-059>065-240300-
...EAST CENTRAL MISSOURI...

CITY           SKY/WX    TMP DP  RH WIND       PRES   REMARKS
ST LOUIS INTL  PTCLDY    54  46  74 W5        29.86R

$$
MOZ072>076-082>087-097>100-106>115-240300-
...SOUTH CENTRAL AND SOUTHEAST MISSOURI...

CITY           SKY/WX    TMP DP  RH WIND       PRES   REMARKS
CAPE GIRARDEAU CLOUDY    64  45  49 NW14      29.85R
POPLAR BLUFF   CLEAR     64  42  44 NW13      29.88R
WEST PLAINS    PTCLDY    58  41  53 NW12      29.98R

$$


USA.gov is the U.S. government's official web portal to all federal, state and local government web resources and services.